[[{"header":{"parameterUnit":"m.s-1","parameterCategory":1,"la1":30.2991,"la2":30.254,"lo1":-89.0895,"lo2":-89.0444,"dy":0.0017,"dx":0.0017,"nx":28,"ny":28,"refTime":"2024-03-15T21:00:00:Z","depth":0,"parameterNumber":2,"parameterNumberName":"U-component_of_WINDS"},"data":[0,0,0,0,0,0,0,0,0,0,0,0,0,0,0,0,0,0,0,0,0,0,0,0,0,0,0,0,0,0,0,0,0,0,0,0,0,0,0,0,0,0,0,0,0,0,0,0,0,0,0,0,0,0,0,0,0,0,-0.8421,-0.842,0,-0.835,-0.8349,-0.8349,-0.828,-0.8279,-0.8279,-0.8278,-0.8203,-0.8201,-0.82,0,0,0,0,0,0,0,0,0,0,0,0,0,-0.8494,-0.8493,-0.8421,-0.842,-0.8419,-0.835,-0.8349,-0.8348,-0.828,-0.8279,-0.8278,-0.8277,-0.8203,-0.8202,-0.82,0,0,0,0,0,0,0,0,0,0,0,0,0,-0.8447,-0.8493,-0.8421,-0.8377,-0.8372,-0.835,-0.8349,-0.8348,-0.8281,-0.8279,-0.8278,-0.8277,-0.8203,-0.8202,-0.82,-0.8215,0,0,-0.8195,-0.8194,0,0,0,0,0,0,0,0,-0.8449,-0.8444,-0.8384,-0.838,-0.8375,-0.8323,-0.8348,-0.8303,-0.8281,-0.8315,-0.8278,-0.8276,-0.8243,-0.8238,-0.8228,-0.8212,-0.8208,-0.8194,-0.8193,-0.8193,-0.8192,0,0,0,0,0,0,0,-0.8453,-0.8447,-0.8393,-0.8383,-0.8378,-0.836,-0.8352,-0.8339,-0.8287,-0.8312,-0.8307,-0.83,-0.8241,-0.823,-0.8226,-0.8207,-0.8194,-0.8193,-0.8192,-0.8191,-0.82,-0.8201,0,0,0,0,0,0,-0.8463,-0.845,-0.8395,-0.839,-0.841,-0.836,-0.835,-0.8341,-0.8287,-0.8278,-0.8301,-0.8297,-0.8233,-0.8228,-0.8223,-0.8237,-0.8193,-0.8191,-0.819,-0.8199,-0.8201,-0.8202,0,0,0,0,0,0,-0.8465,-0.8459,-0.8398,-0.8419,-0.841,-0.836,-0.8349,-0.834,-0.8329,-0.8279,-0.8269,-0.83,-0.8232,-0.8225,-0.8218,-0.8234,-0.819,-0.8188,-0.8197,-0.8199,-0.8201,-0.8267,0,0,0,0,0,0,-0.8467,-0.846,-0.8466,-0.8419,-0.8409,-0.8395,-0.835,-0.834,-0.8327,-0.8321,-0.8275,-0.8266,-0.8231,-0.8221,-0.8216,-0.823,-0.8187,-0.8196,-0.8198,-0.8201,-0.8263,-0.8271,-0.8277,0,0,0,0,0,-0.847,-0.8486,-0.8466,-0.846,-0.8415,-0.8396,-0.839,-0.8349,-0.8328,-0.8333,-0.8301,-0.8268,-0.8233,-0.8221,-0.8215,-0.8229,-0.8195,-0.8198,-0.82,-0.826,-0.8269,-0.8277,0,0,0,0,0,0,-0.8534,-0.8479,-0.8457,-0.8458,-0.8433,-0.8385,-0.839,-0.8361,-0.8339,-0.8335,-0.8284,-0.8274,-0.8273,-0.825,-0.8237,-0.8241,-0.8209,-0.8211,-0.8256,-0.8265,-0.8272,-0.8277,-0.8186,0,0,0,0,0,-0.8549,-0.8539,-0.8491,-0.8497,-0.8485,-0.844,-0.843,-0.8401,-0.8372,-0.8361,-0.8328,-0.83,-0.8283,-0.8272,-0.8253,-0.8259,-0.8248,-0.8266,-0.8273,-0.8279,-0.8281,-0.8283,-0.829,-0.8212,-0.8212,-0.8212,0,0,-0.8578,-0.8547,-0.8544,-0.8509,-0.8486,-0.8476,-0.8431,-0.8422,-0.8414,-0.8359,-0.835,-0.8326,-0.8291,-0.8291,-0.8288,-0.8271,-0.8301,-0.8283,-0.8288,-0.8287,-0.8287,-0.8294,-0.8301,-0.8214,-0.8213,-0.8213,0,0,-0.8627,-0.8603,-0.8605,-0.8583,-0.8549,-0.8519,-0.852,-0.8476,-0.8458,-0.8449,-0.8407,-0.8396,-0.8368,-0.8345,-0.833,-0.8371,-0.834,-0.8366,-0.8404,-0.8406,-0.8412,-0.8418,-0.8433,-0.8439,-0.8369,-0.8369,-0.8369,0,-0.8668,-0.8653,-0.861,-0.8604,-0.859,-0.8541,-0.8543,-0.8523,-0.8484,-0.8475,-0.8457,-0.842,-0.8393,-0.8387,-0.8397,-0.8387,-0.8386,-0.8371,-0.8415,-0.842,-0.8424,-0.8438,-0.8444,-0.8372,-0.8372,-0.8372,-0.8371,0,-0.8705,-0.8694,-0.87,-0.8666,-0.8652,-0.865,-0.8607,-0.8598,-0.8571,-0.8543,-0.8534,-0.8501,-0.8474,-0.8471,-0.8443,-0.8461,-0.8451,-0.8425,-0.8392,-0.8436,-0.8448,-0.8453,-0.8377,-0.8376,-0.8375,-0.8374,0,0,-0.8791,-0.8734,-0.8737,-0.8721,-0.868,-0.867,-0.8666,-0.8642,-0.8636,-0.861,-0.8605,-0.8583,-0.8558,-0.8541,-0.851,-0.8512,-0.8548,-0.8485,-0.8484,-0.8499,-0.8565,-0.8586,-0.8593,-0.8527,-0.8528,-0.8528,-0.8568,0,-0.8834,-0.8824,-0.8786,-0.8788,-0.8778,-0.8731,-0.8728,-0.8702,-0.8675,-0.8662,-0.8633,-0.8618,-0.8586,-0.8576,-0.8576,-0.8544,-0.8561,-0.854,-0.8521,-0.8521,-0.8532,-0.8599,-0.862,-0.866,-0.8573,-0.8573,-0.8574,0,-0.8881,-0.8861,-0.8862,-0.8822,-0.8816,-0.8814,-0.8789,-0.8777,-0.8747,-0.8727,-0.8709,-0.8675,-0.8668,-0.8637,-0.8626,-0.8613,-0.8603,-0.8586,-0.8587,-0.8583,-0.8551,-0.8598,-0.8671,-0.8677,-0.8581,-0.858,-0.858,0,-0.8945,-0.8918,-0.8915,-0.8902,-0.8855,-0.8855,-0.8835,-0.8803,-0.8791,-0.8769,-0.8761,-0.8738,-0.8725,-0.8708,-0.8668,-0.865,-0.8662,-0.8628,-0.8645,-0.8646,-0.8649,-0.865,-0.8723,-0.8643,-0.8643,-0.8643,-0.8643,0,-0.8996,-0.8999,-0.8943,-0.8942,-0.8943,-0.8899,-0.8902,-0.8877,-0.885,-0.8842,-0.8799,-0.8793,-0.8742,-0.8729,-0.8698,-0.8694,-0.8688,-0.8672,-0.8664,-0.8676,-0.8678,-0.8669,-0.8665,-0.8644,-0.8644,-0.8644,-0.8643,0,-0.9068,-0.9031,-0.9025,-0.8981,-0.897,-0.8973,-0.8936,-0.8932,-0.8903,-0.8894,-0.8889,-0.8844,-0.8827,-0.8787,-0.8759,-0.8738,-0.8742,-0.8726,-0.8752,-0.8747,-0.8767,-0.8766,-0.8836,-0.8844,-0.876,-0.876,-0.8761,0,-0.9103,-0.9104,-0.9061,-0.9054,-0.9036,-0.9024,-0.9012,-0.8969,-0.8958,-0.8924,-0.8924,-0.8905,-0.8886,-0.8861,-0.8825,-0.8804,-0.8788,-0.8814,-0.8784,-0.8797,-0.8789,-0.8789,-0.8789,-0.8821,-0.8822,-0.8823,-0.8824,0,-0.917,-0.9151,-0.9136,-0.9115,-0.9102,-0.9083,-0.9061,-0.9057,-0.9009,-0.8998,-0.8981,-0.8968,-0.894,-0.892,-0.8893,-0.8872,-0.884,-0.8833,-0.8836,-0.8849,-0.8864,-0.8856,-0.8771,-0.8832,-0.8831,-0.883,-0.883,-0.883,-0.9224,-0.9223,-0.9193,-0.9178,-0.9157,-0.9138,-0.9133,-0.9105,-0.909,-0.9065,-0.904,-0.9026,-0.8995,-0.8956,-0.8936,-0.8924,-0.8907,-0.8912,-0.8913,-0.8914,-0.892,-0.8866,-0.8919,-0.8919,-0.8918,-0.8918,-0.8918,0,-0.9288,-0.9267,-0.9254,-0.9226,-0.9214,-0.9186,-0.916,-0.9152,-0.914,-0.9115,-0.9099,-0.9079,-0.906,-0.9024,-0.9001,-0.8998,-0.8983,-0.8994,-0.8994,-0.8989,-0.8936,-0.8936,-0.9007,-0.9007,-0.9007,-0.9007,-0.9007,-0.9007,-0.9321,-0.9318,-0.9297,-0.9283,-0.9261,-0.9248,-0.9236,-0.9218,-0.9198,-0.9179,-0.9164,-0.914,-0.911,-0.9085,-0.9067,-0.9056,-0.905,-0.9066,-0.9051,-0.9002,-0.8993,-0.8985,-0.8985,-0.9065,-0.9065,-0.9105,-0.9106,-0.9106]},{"header":{"parameterUnit":"m.s-1","parameterCategory":1,"la1":30.2991,"la2":30.254,"lo1":-89.0895,"lo2":-89.0444,"dy":0.0017,"dx":0.0017,"nx":28,"ny":28,"refTime":"2024-03-15T21:00:00:Z","depth":0,"parameterNumber":3,"parameterNumberName":"V-component_of_WINDS"},"data":[0,0,0,0,0,0,0,0,0,0,0,0,0,0,0,0,0,0,0,0,0,0,0,0,0,0,0,0,0,0,0,0,0,0,0,0,0,0,0,0,0,0,0,0,0,0,0,0,0,0,0,0,0,0,0,0,0,0,0.2846,0.2846,0,0.2838,0.2837,0.2837,0.2858,0.2859,0.2859,0.286,0.285,0.2849,0.2848,0,0,0,0,0,0,0,0,0,0,0,0,0,0.2879,0.2879,0.2846,0.2846,0.2846,0.2838,0.2837,0.2837,0.2858,0.2859,0.286,0.286,0.285,0.2849,0.2848,0,0,0,0,0,0,0,0,0,0,0,0,0,0.2867,0.2878,0.2846,0.2855,0.2856,0.2838,0.2837,0.2837,0.2858,0.2859,0.286,0.2861,0.2851,0.2849,0.2848,0.282,0,0,0.2844,0.2843,0,0,0,0,0,0,0,0,0.2868,0.2866,0.2854,0.2855,0.2855,0.285,0.2846,0.2832,0.2858,0.2857,0.286,0.2861,0.2849,0.2848,0.2844,0.282,0.2819,0.2844,0.2843,0.2843,0.2842,0,0,0,0,0,0,0,0.2869,0.2866,0.2843,0.2854,0.2855,0.2859,0.2859,0.2843,0.2848,0.2857,0.2859,0.2857,0.285,0.2845,0.2844,0.2819,0.2844,0.2843,0.2842,0.2841,0.2771,0.277,0,0,0,0,0,0,0.2868,0.2867,0.2843,0.2842,0.2864,0.2858,0.2857,0.2851,0.2848,0.2848,0.2857,0.2858,0.2847,0.2846,0.2844,0.2811,0.2843,0.2841,0.2841,0.2772,0.2771,0.277,0,0,0,0,0,0,0.2869,0.2866,0.2843,0.2855,0.2853,0.2856,0.2849,0.285,0.2846,0.2847,0.2848,0.2851,0.2848,0.2846,0.2826,0.2811,0.2841,0.284,0.2774,0.2772,0.2771,0.2745,0,0,0,0,0,0,0.287,0.2866,0.2856,0.2855,0.2852,0.2826,0.2848,0.2849,0.2844,0.2846,0.2843,0.2843,0.2848,0.2828,0.2825,0.281,0.2838,0.2775,0.2773,0.2771,0.2748,0.2743,0.2739,0,0,0,0,0,0.2871,0.2849,0.2855,0.2852,0.2839,0.2825,0.2823,0.283,0.2842,0.2832,0.2833,0.2843,0.2813,0.2826,0.2822,0.2807,0.2776,0.2774,0.2771,0.2749,0.2744,0.2739,0,0,0,0,0,0,0.2848,0.2849,0.2856,0.2833,0.2829,0.2829,0.2816,0.2824,0.2816,0.2819,0.2827,0.2826,0.2805,0.2804,0.2818,0.278,0.2797,0.2793,0.2781,0.2776,0.2772,0.2773,0.2837,0,0,0,0,0,0.284,0.2829,0.283,0.281,0.2807,0.2812,0.2806,0.2811,0.2807,0.2806,0.2805,0.2801,0.279,0.2783,0.2773,0.2747,0.2747,0.2735,0.2731,0.2728,0.2725,0.2711,0.2706,0.2762,0.2762,0.2762,0,0,0.2824,0.2823,0.2815,0.2805,0.2802,0.279,0.281,0.2796,0.2787,0.2803,0.2785,0.2785,0.278,0.2757,0.2747,0.2755,0.2709,0.2724,0.2722,0.2721,0.2708,0.2703,0.2698,0.2761,0.2761,0.2761,0,0,0.2788,0.2786,0.2769,0.2766,0.2762,0.2765,0.2761,0.276,0.276,0.2742,0.2754,0.2743,0.2725,0.2721,0.2716,0.2679,0.2689,0.2676,0.2654,0.2641,0.2636,0.2632,0.2619,0.2614,0.2673,0.2673,0.2673,0,0.2768,0.2751,0.2759,0.2744,0.2739,0.2754,0.2736,0.2733,0.2726,0.2722,0.2732,0.2709,0.2707,0.2684,0.2675,0.2671,0.2666,0.2676,0.2636,0.2633,0.2629,0.2617,0.2612,0.2671,0.2672,0.2672,0.2672,0,0.2726,0.2714,0.2701,0.2694,0.2687,0.2671,0.2677,0.2669,0.2676,0.2678,0.2659,0.2657,0.2647,0.2642,0.2647,0.2619,0.2624,0.2635,0.2652,0.2622,0.261,0.2606,0.2669,0.267,0.267,0.2671,0,0,0.2675,0.2674,0.2669,0.2666,0.2663,0.2653,0.2638,0.2629,0.2622,0.2617,0.2604,0.2588,0.2598,0.2593,0.2599,0.2587,0.2558,0.2599,0.2599,0.2591,0.2526,0.2518,0.2513,0.2564,0.2563,0.2562,0.2527,0,0.264,0.2614,0.2621,0.2595,0.2584,0.2598,0.2584,0.2581,0.2582,0.2572,0.2574,0.2563,0.2577,0.2574,0.2563,0.2564,0.2545,0.2566,0.2552,0.2551,0.2553,0.2507,0.2498,0.2465,0.2522,0.2521,0.2521,0,0.2596,0.2589,0.2562,0.2561,0.2556,0.2544,0.2537,0.2527,0.2524,0.2525,0.252,0.2528,0.2512,0.253,0.2508,0.2523,0.2517,0.2517,0.2516,0.2515,0.2534,0.2504,0.2454,0.2449,0.2514,0.2514,0.2515,0,0.2561,0.2546,0.2528,0.2525,0.2523,0.2514,0.2513,0.251,0.2504,0.2497,0.2494,0.2485,0.248,0.2473,0.2478,0.249,0.2456,0.2474,0.2457,0.2457,0.2449,0.2449,0.2397,0.2445,0.2445,0.2445,0.2446,0,0.2521,0.2504,0.2512,0.2501,0.2482,0.249,0.2472,0.2472,0.2469,0.2458,0.2469,0.2458,0.2466,0.2455,0.2459,0.2441,0.2439,0.244,0.2441,0.2439,0.2439,0.2435,0.2438,0.2444,0.2444,0.2445,0.2445,0,0.248,0.2485,0.2466,0.2466,0.2465,0.2451,0.2451,0.2441,0.2443,0.2429,0.2426,0.2429,0.2418,0.2423,0.241,0.2413,0.239,0.2394,0.2391,0.2392,0.2375,0.2377,0.2319,0.2312,0.2364,0.2364,0.2364,0,0.2454,0.2441,0.244,0.2434,0.2432,0.2421,0.2416,0.2423,0.2416,0.2411,0.2401,0.2391,0.2383,0.2364,0.2365,0.2356,0.236,0.234,0.2359,0.2357,0.236,0.236,0.2359,0.2337,0.2336,0.2336,0.2335,0,0.2408,0.2411,0.2402,0.2395,0.2388,0.2382,0.2377,0.2371,0.2378,0.237,0.2359,0.2352,0.234,0.233,0.2321,0.232,0.2328,0.2329,0.2325,0.2323,0.2322,0.2322,0.2381,0.2331,0.2331,0.2331,0.2332,0.2332,0.2374,0.2363,0.2361,0.2351,0.2348,0.2343,0.2333,0.2334,0.2325,0.2316,0.2321,0.2308,0.2304,0.2294,0.2291,0.2281,0.2288,0.2282,0.228,0.2279,0.2277,0.2323,0.2279,0.2279,0.2279,0.228,0.228,0,0.2328,0.2327,0.2318,0.2311,0.2303,0.2313,0.2307,0.23,0.2289,0.2285,0.2277,0.2264,0.2254,0.2254,0.2245,0.2237,0.224,0.2234,0.2235,0.2234,0.227,0.2275,0.2231,0.2231,0.2231,0.2231,0.2231,0.2231,0.2303,0.2286,0.2289,0.227,0.2269,0.2257,0.2253,0.2249,0.2246,0.2231,0.2223,0.2223,0.2221,0.2211,0.2203,0.2203,0.2199,0.2191,0.2193,0.2227,0.2231,0.2236,0.2241,0.219,0.219,0.2157,0.2157,0.2157]}]]